FW9568 Weather Reports


Display with metric or nautical units.
time (UTC)temp
F
wind
direction
speed
MPH
gust
MPH
rain 1hr
in
rain 24hr
in
rain mn
in
humidity
%
barometer
mb
20260506035403 34 289 2.0 4.0 0.00 0.11 0.11 92 1014.7
20260506034503 34 277 1.0 6.0 0.01 0.11 0.11 92 1014.6
20260506033603 35 302 0.0 4.0 0.01 0.11 0.11 93 1014.5
20260506032703 35 301 0.0 3.0 0.02 0.11 0.11 92 1014.3
20260506031803 35 322 1.0 4.0 0.02 0.11 0.11 92 1014.3
20260506030903 35 289 1.0 7.0 0.02 0.11 0.11 92 1014.1
20260506030217 35 286 1.0 7.0 0.02 0.11 0.11 92 1013.9
20260506025616 35 301 1.0 3.0 0.02 0.11 0.11 92 1013.9
20260506024503 35 290 1.0 3.0 0.01 0.10 0.10 92 1013.8
20260506023603 36 295 1.0 4.0 0.01 0.10 0.10 92 1013.6
20260506022703 36 85 0.0 1.0 0.01 0.09 0.09 92 1013.6
20260506021803 36 85 0.0 1.0 0.01 0.09 0.09 93 1013.2
20260506020903 36 85 0.0 1.0 0.01 0.09 0.09 93 1013.0
20260506020003 36 85 0.0 1.0 0.01 0.09 0.09 93 1013.1
20260506015403 36 85 0.0 1.0 0.01 0.09 0.09 93 1012.8
20260506014719 36 79 0.0 2.0 0.01 0.09 0.09 93 1012.9
20260506013819 36 72 1.0 3.0 0.01 0.09 0.09 93 1012.8
20260506012703 36 67 1.0 4.0 0.00 0.08 0.08 92 1012.3
20260506011803 36 74 1.0 4.0 0.00 0.08 0.08 92 1012.4
20260506011117 36 69 1.0 4.0 0.00 0.08 0.08 92 1012.0
20260506010003 36 79 1.0 4.0 0.00 0.08 0.08 92 1012.0
20260506005403 36 74 1.0 3.0 0.00 0.08 0.08 92 1012.3
20260506004504 36 60 1.0 4.0 0.00 0.08 0.08 92 1012.4
20260506003603 36 80 1.0 3.0 0.00 0.08 0.08 92 1012.5
20260506002703 36 95 1.0 4.0 0.00 0.08 0.08 92 1012.5
20260506001803 36 99 2.0 6.0 0.01 0.08 0.08 92 1012.5
20260506001116 37 92 2.0 6.0 0.01 0.08 0.08 92 1012.1
20260506000003 37 93 2.0 4.0 0.01 0.08 0.08 92 1012.0
20260505235403 37 100 2.0 4.0 0.02 0.08 0.08 92 1012.0
20260505234503 37 99 2.0 4.0 0.02 0.08 0.08 92 1011.7
20260505233603 37 96 2.0 6.0 0.02 0.08 0.08 92 1011.6
20260505232703 37 90 2.0 4.0 0.02 0.08 0.08 92 1011.5
20260505231803 37 95 1.0 6.0 0.01 0.07 0.07 92 1011.6
20260505230903 37 102 3.0 8.0 0.01 0.07 0.07 92 1011.3
20260505230003 38 96 3.0 6.0 0.01 0.07 0.07 92 1011.1
20260505225403 38 97 3.0 6.0 0.00 0.06 0.06 92 1011.1
20260505224718 38 92 2.0 7.0 0.00 0.06 0.06 92 1011.3
20260505223603 38 96 2.0 8.0 0.00 0.06 0.06 92 1011.2
20260505222703 38 100 2.0 8.0 0.00 0.06 0.06 92 1011.0
20260505221803 39 101 2.0 6.0 0.00 0.06 0.06 92 1011.1
20260505220903 39 96 2.0 6.0 0.00 0.06 0.06 92 1011.1
20260505220003 39 105 2.0 7.0 0.01 0.06 0.06 92 1011.6
20260505215403 39 101 2.0 7.0 0.01 0.06 0.06 93 1011.6
20260505214503 39 102 2.0 4.0 0.01 0.06 0.06 92 1011.6
20260505213603 38 96 2.0 5.0 0.01 0.06 0.06 92 1011.7
20260505212703 38 94 2.0 6.0 0.01 0.06 0.06 92 1011.6
20260505211803 39 93 2.0 6.0 0.01 0.06 0.06 92 1012.0
20260505210903 39 96 2.0 7.0 0.01 0.06 0.06 92 1012.0
20260505210003 39 90 2.0 6.0 0.00 0.05 0.05 92 1012.0
20260505205403 39 101 2.0 5.0 0.00 0.05 0.05 92 1012.2
20260505204503 39 93 3.0 7.0 0.00 0.05 0.05 92 1011.9
20260505203603 39 97 2.0 6.0 0.00 0.05 0.05 92 1012.0
20260505202703 39 97 2.0 6.0 0.00 0.05 0.05 92 1012.1
20260505202015 39 103 2.0 5.0 0.00 0.05 0.05 92 1012.4
20260505200903 39 98 2.0 6.0 0.00 0.05 0.05 92 1012.5
20260505200003 39 87 2.0 4.0 0.00 0.05 0.05 91 1012.8
20260505195403 39 98 2.0 5.0 0.00 0.05 0.05 92 1012.9
20260505194503 39 96 2.0 6.0 0.01 0.05 0.05 91 1012.8
20260505193603 39 98 2.0 6.0 0.01 0.05 0.05 91 1012.9
20260505192703 39 91 3.0 9.0 0.01 0.05 0.05 91 1012.8
20260505191803 39 99 3.0 7.0 0.02 0.05 0.05 91 1012.9
20260505190903 40 102 2.0 7.0 0.02 0.05 0.05 91 1012.8
20260505190003 40 93 2.0 5.0 0.03 0.05 0.05 91 1012.9
20260505185403 40 97 2.0 7.0 0.03 0.05 0.05 91 1012.9
20260505184503 40 100 2.0 6.0 0.02 0.04 0.04 91 1013.1
20260505183603 40 105 2.0 4.0 0.02 0.04 0.04 91 1013.1
20260505182703 40 94 1.0 4.0 0.03 0.04 0.04 91 1013.3
20260505181803 39 92 1.0 3.0 0.03 0.03 0.03 91 1013.5
20260505180903 39 92 1.0 4.0 0.03 0.03 0.03 90 1013.6
20260505180217 39 93 2.0 6.0 0.02 0.02 0.02 90 1013.7
20260505175403 39 100 2.0 6.0 0.02 0.02 0.02 88 1013.8
20260505174503 39 80 2.0 4.0 0.02 0.02 0.02 88 1013.9
20260505173603 40 85 2.0 5.0 0.02 0.02 0.02 87 1013.8
20260505172703 40 105 2.0 7.0 0.01 0.01 0.01 87 1013.9
20260505171803 40 95 2.0 6.0 0.00 0.00 0.00 87 1013.9
20260505170903 40 100 2.0 4.0 0.00 0.00 0.00 87 1013.8
20260505170003 40 103 2.0 7.0 0.00 0.00 0.00 86 1014.0
20260505165403 40 111 2.0 4.0 0.00 0.00 0.00 86 1014.1
20260505164716 40 98 2.0 7.0 0.00 0.00 0.00 86 1014.0
20260505163819 40 93 3.0 6.0 0.00 0.00 0.00 85 1014.0
20260505162703 41 97 2.0 5.0 0.00 0.00 0.00 85 1013.9
20260505161803 41 110 2.0 6.0 0.00 0.00 0.00 84 1013.9
20260505160903 41 101 2.0 4.0 0.00 0.00 0.00 83 1014.0
20260505160217 41 91 2.0 4.0 0.00 0.00 0.00 82 1013.9
20260505152703 42 93 2.0 6.0 0.00 0.00 0.00 82 1013.8
20260505151803 42 94 2.0 6.0 0.00 0.00 0.00 82 1013.7
20260505150903 42 95 2.0 7.0 0.00 0.00 0.00 82 1013.8
20260505124503 42 79 1.0 4.0 0.00 0.00 0.00 81 1013.1
20260505123603 42 70 0.0 2.0 0.00 0.00 0.00 81 1013.2
20260505122703 42 66 1.0 3.0 0.00 0.00 0.00 81 1013.0
20260505122016 42 172 0.0 3.0 0.00 0.00 0.00 80 1012.7
20260505120903 42 76 2.0 5.0 0.00 0.00 0.00 79 1012.4
20260505120004 42 91 2.0 4.0 0.00 0.00 0.00 79 1012.1
20260505115619 42 93 2.0 4.0 0.00 0.00 0.00 78 1011.8
20260505114718 43 75 2.0 4.0 0.00 0.00 0.00 78 1012.0
20260505113603 43 101 1.0 3.0 0.00 0.00 0.00 76 1011.8
20260505112703 44 104 1.0 3.0 0.00 0.00 0.00 76 1011.7
20260505111803 44 103 1.0 2.0 0.00 0.00 0.00 77 1011.8
20260505110903 44 99 1.0 3.0 0.00 0.00 0.00 77 1011.6
20260505101803 45 101 1.0 2.0 0.00 0.00 0.00 77 1011.8
20260505100903 45 101 1.0 2.0 0.00 0.00 0.00 77 1011.8
20260505100003 45 101 0.0 2.0 0.00 0.00 0.00 76 1011.8
20260505095618 45 101 0.0 3.0 0.00 0.00 0.00 76 1011.8
20260505094717 46 108 1.0 3.0 0.00 0.00 0.00 76 1011.8
20260505093603 46 26 0.0 2.0 0.00 0.00 0.00 76 1011.8
20260505092703 46 26 0.0 1.0 0.00 0.00 0.00 74 1011.8
20260505091803 47 0 0.0 1.0 0.00 0.00 0.00 74 1011.8
20260505090903 47 26 0.0 1.0 0.00 0.00 0.00 73 1011.9
20260505090003 47 37 0.0 2.0 0.00 0.00 0.00 72 1011.9
20260505085403 47 66 0.0 2.0 0.00 0.00 0.00 73 1011.6
20260505084503 47 34 0.0 2.0 0.00 0.00 0.00 74 1011.9
20260505083603 48 339 0.0 3.0 0.00 0.00 0.00 75 1012.0
20260505082703 48 287 1.0 4.0 0.00 0.00 0.00 76 1012.2
20260505081803 48 286 0.0 2.0 0.00 0.00 0.00 78 1012.3
20260505080903 48 286 0.0 2.0 0.00 0.00 0.00 79 1012.3
20260505080003 48 286 0.0 1.0 0.00 0.00 0.00 79 1012.2
20260505075403 48 0 0.0 1.0 0.00 0.00 0.00 79 1012.2
20260505074503 48 286 0.0 3.0 0.00 0.00 0.00 78 1012.4
20260505073603 48 283 1.0 3.0 0.00 0.00 0.00 79 1012.4
20260505072703 48 301 1.0 3.0 0.00 0.00 0.00 79 1012.4
20260505072018 48 302 1.0 4.0 0.00 0.00 0.00 79 1012.3
20260505070903 48 293 1.0 4.0 0.00 0.00 0.00 78 1012.4
20260505070003 49 300 1.0 3.0 0.00 0.00 0.00 78 1012.4
20260505065403 49 305 1.0 4.0 0.00 0.00 0.00 78 1012.4
20260505064503 49 310 1.0 2.0 0.00 0.00 0.00 77 1012.3
20260505063603 49 304 1.0 3.0 0.00 0.00 0.00 76 1012.4
20260505062703 50 288 1.0 2.0 0.00 0.00 0.00 75 1012.5
20260505061803 50 281 0.0 3.0 0.00 0.00 0.00 73 1012.4
20260505060903 50 284 1.0 4.0 0.00 0.00 0.00 73 1012.7
20260505060004 50 303 1.0 5.0 0.00 0.00 0.00 72 1012.6
20260505055403 51 301 2.0 6.0 0.00 0.00 0.00 70 1012.7
20260505054503 51 296 2.0 7.0 0.00 0.00 0.00 69 1012.6
20260505053603 51 293 2.0 7.0 0.00 0.00 0.00 68 1012.4
20260505052703 51 307 2.0 7.0 0.00 0.00 0.00 67 1012.5
20260505051803 51 296 2.0 4.0 0.00 0.00 0.00 66 1012.4
20260505050903 51 289 3.0 9.0 0.00 0.00 0.00 66 1012.3
20260505040903 52 294 2.0 6.0 0.00 0.00 0.00 64 1011.8